Theta_e
307 307 308 307 307 308 308 308 308 308 309 309 309 306 302 302 303 308 307 308 308 305 304 311 312 322 324 325 324 326 327 326 323 320 320 321 323 324 328 329 331 331 332 331 338
307 307 307 307 307 307 307 307 306 308 308 309 308 306 305 303 309 308 311 305 305 308 312 311 313 318 324 327 326 328 329 327 325 323 322 321 322 325 328 329 332 331 331 330 332
306 307 307 306 307 307 307 305 304 306 308 308 307 306 306 307 308 313 312 306 307 307 310 313 310 319 321 324 327 328 330 327 327 324 323 322 322 323 326 329 332 332 331 332 331
306 306 306 305 304 304 304 304 306 306 308 307 306 307 304 308 307 314 311 308 307 307 312 314 314 315 322 324 325 328 329 329 328 326 325 324 323 324 323 324 327 328 329 329 331
305 306 306 305 303 303 305 306 306 306 307 307 306 307 310 310 306 304 307 309 309 309 308 311 315 314 317 322 324 326 326 327 326 327 326 326 326 327 327 326 326 327 329 331 332
305 305 305 305 303 303 305 306 307 307 307 306 306 307 310 310 306 307 309 310 310 309 309 309 312 315 314 317 320 323 324 325 326 326 327 327 327 329 330 330 330 331 332 331 331
302 303 304 304 301 303 304 306 306 306 306 307 308 310 312 309 308 309 310 310 310 309 310 309 309 310 316 316 316 319 321 322 324 325 326 328 330 331 330 331 332 331 331 331 331
302 300 302 304 303 303 304 306 306 306 308 308 308 310 312 308 309 310 309 310 310 310 309 309 309 309 310 314 317 316 318 321 322 324 325 326 330 329 329 329 331 331 331 331 331
298 297 298 300 300 303 305 305 306 308 308 309 312 312 310 308 309 309 309 310 309 309 309 309 309 309 308 311 315 318 318 320 321 322 324 325 328 328 328 329 329 330 330 330 331
297 297 299 301 300 303 305 306 306 310 311 311 311 314 309 308 308 308 309 309 310 310 310 311 311 311 309 309 314 316 318 318 320 322 322 323 324 325 327 327 329 329 329 330 330
302 302 303 304 300 304 307 309 312 311 309 309 309 309 308 308 308 309 309 310 310 310 311 311 312 311 310 310 310 313 316 319 319 319 322 324 324 325 325 325 327 328 329 329 329
303 303 305 305 300 305 308 310 309 308 310 309 308 309 308 308 309 309 309 311 311 311 310 310 311 310 310 310 309 311 314 317 319 318 320 322 324 324 325 325 326 327 328 328 328
303 305 305 306 301 308 309 309 308 308 311 308 308 308 308 308 308 309 310 310 311 311 310 310 310 310 309 309 310 311 313 315 317 318 320 321 323 324 324 325 325 325 326 325 326
302 304 305 304 307 307 310 308 308 308 312 308 309 308 308 308 309 308 309 310 311 311 311 310 309 310 310 309 309 310 310 311 314 318 320 320 323 323 323 324 324 325 325 325 325
298 305 303 302 307 310 308 308 308 308 312 307 308 307 308 308 308 309 308 311 312 312 313 313 311 309 309 308 309 309 310 311 314 316 318 318 322 322 322 323 323 324 324 323 323
299 306 304 307 309 308 308 308 308 313 312 309 308 309 309 308 308 308 308 312 312 313 313 313 312 311 310 309 308 310 310 311 314 316 320 318 319 320 320 321 322 322 321 321 321
300 306 307 307 310 308 309 309 313 312 309 310 309 309 309 308 308 308 308 308 313 315 313 313 313 312 311 309 309 309 311 313 315 317 318 317 319 320 321 320 320 321 320 320 321
302 307 308 309 309 309 309 311 314 309 309 309 309 310 308 308 308 308 309 308 312 313 316 316 314 312 312 311 311 309 310 314 315 316 315 315 317 318 318 319 320 319 320 321 324
305 310 311 309 309 308 311 315 311 310 309 310 310 309 309 308 308 308 309 308 310 310 313 314 314 312 311 311 311 310 310 310 311 311 314 315 316 316 318 319 319 319 319 321 324
307 311 310 307 309 310 311 310 311 309 309 309 310 309 310 309 309 309 308 308 309 309 309 311 315 311 312 312 311 312 310 311 310 315 314 314 316 316 317 317 318 319 320 321 323
309 312 308 306 308 310 313 310 309 308 309 309 310 310 310 310 309 309 309 308 308 309 308 309 311 312 312 312 313 314 310 311 313 310 310 314 315 317 318 319 320 320 320 320 321
307 312 308 306 310 309 308 307 306 309 309 309 309 310 310 310 310 309 309 309 308 308 309 309 311 312 311 310 310 311 314 315 317 315 312 313 318 318 319 320 320 319 320 320 321
306 306 306 306 310 307 307 307 308 309 308 309 310 309 309 309 310 308 308 308 307 308 310 311 311 313 310 313 312 312 310 311 313 314 319 314 315 318 318 317 317 318 319 320 320
307 311 310 307 306 306 306 309 309 308 308 308 308 308 309 309 309 311 309 308 308 308 308 311 313 312 314 311 311 311 312 312 312 315 313 314 315 316 317 316 317 318 319 318 319
306 309 307 313 310 307 307 307 308 309 308 308 309 309 309 311 310 310 309 310 310 310 310 311 314 312 310 310 309 310 310 311 313 312 313 313 313 314 315 316 316 317 316 315 318
307 307 306 306 307 307 307 308 307 308 306 308 308 308 308 309 309 311 310 311 312 310 312 312 313 312 312 310 310 310 310 310 310 310 312 312 313 312 313 313 313 314 314 316 320
299 300 303 306 307 307 308 306 306 306 306 307 308 310 309 309 310 310 310 310 310 311 311 313 313 313 314 310 309 311 311 311 311 311 312 313 312 313 313 313 314 314 314 316 320
Wind_Speed
14 15 16 16 16 16 16 15 15 15 15 16 17 17 17 18 19 9 6 5 6 11 11 9 9 10 13 14 16 13 13 16 21 16 16 10 14 16 5 11 5 1 4 6 4
16 16 17 17 17 18 17 15 14 14 14 15 16 16 15 16 15 4 3 6 10 15 6 13 14 15 13 16 12 15 16 24 17 12 13 17 17 11 7 13 12 8 7 4 7
17 17 17 18 18 17 16 15 15 14 14 14 15 15 14 13 6 5 1 13 19 13 5 8 17 15 21 16 21 22 25 19 20 14 15 19 19 16 14 17 14 12 8 5 5
19 19 19 19 18 16 14 12 12 14 16 15 14 13 11 4 2 5 6 15 11 7 6 5 10 19 19 25 21 25 24 25 22 16 14 19 19 23 21 22 21 7 11 14 12
19 20 20 20 18 15 13 11 12 13 14 11 10 10 6 4 5 1 8 9 6 4 6 8 11 16 25 18 24 28 28 22 20 20 19 15 24 23 23 22 21 18 16 17 18
21 21 21 20 19 15 13 11 12 13 11 9 8 7 5 2 3 4 9 8 6 6 4 8 9 10 17 23 25 22 25 29 26 20 18 23 27 24 22 22 22 20 21 20 16
23 23 22 22 19 16 14 13 15 12 11 6 5 2 4 7 4 7 8 8 7 5 8 6 12 13 6 17 23 24 27 25 22 26 28 18 24 36 25 26 21 19 19 19 18
23 25 24 23 21 17 15 15 16 10 4 2 1 2 1 1 6 8 10 9 4 8 9 8 9 16 18 17 18 18 23 24 33 25 25 23 32 37 25 26 28 26 23 22 20
25 26 26 23 20 17 16 17 6 2 2 1 1 4 4 5 11 10 10 12 14 10 7 8 8 15 15 19 18 21 24 32 31 30 25 18 32 35 28 21 19 21 19 19 18
26 27 26 23 18 15 15 7 1 3 2 2 3 5 1 9 15 17 7 9 9 10 10 10 8 13 15 17 23 26 29 29 30 23 27 30 34 29 19 11 20 22 22 20 17
27 26 24 23 15 10 12 6 4 6 5 7 5 4 5 13 13 7 9 8 6 8 12 15 12 17 16 20 29 27 29 26 29 23 25 28 34 32 28 28 24 22 20 19 20
27 26 24 22 11 4 5 4 5 5 7 6 8 7 9 6 8 6 3 5 8 11 12 12 19 19 19 19 24 28 30 32 22 16 21 28 33 28 27 27 27 26 24 23 21
30 29 24 18 3 2 3 5 2 8 6 3 1 4 3 6 11 10 4 9 13 14 11 16 20 17 15 17 20 24 27 26 29 16 19 21 29 29 28 28 24 21 22 22 21
33 28 21 4 2 2 2 1 7 4 4 4 4 3 5 10 8 10 3 9 9 11 13 15 16 17 19 21 21 24 24 27 26 25 19 21 22 24 26 27 28 26 22 21 19
36 24 12 6 2 1 3 6 6 4 3 2 2 3 10 5 8 2 5 7 13 16 13 18 17 16 18 19 21 23 21 26 20 23 25 29 17 17 17 20 20 19 20 20 19
34 13 7 5 3 2 5 5 5 6 1 2 2 7 12 9 7 5 9 4 11 12 16 21 16 19 17 17 19 17 17 21 18 20 22 33 24 23 22 25 22 20 16 15 15
31 5 4 2 4 5 5 4 5 4 2 2 7 11 14 9 8 8 13 11 7 8 13 18 9 13 17 18 18 15 17 13 15 13 16 22 23 20 7 6 12 13 6 5 6
22 1 2 2 5 4 4 5 4 4 5 7 9 15 5 8 7 13 12 12 4 7 12 9 6 7 7 19 18 18 18 13 19 17 20 22 15 17 17 24 14 10 10 3 6
8 0 1 4 5 6 6 4 5 6 5 9 14 5 1 4 6 8 13 8 5 7 8 12 6 7 13 11 14 22 18 21 23 24 19 18 24 22 8 9 9 3 5 3 8
5 3 3 10 6 7 4 4 4 3 7 7 6 3 9 12 11 10 10 1 7 5 10 8 12 5 2 11 20 21 12 13 14 14 17 18 21 12 25 27 16 5 1 7 10
3 3 6 8 4 3 2 4 5 3 7 6 9 12 12 12 10 11 7 12 4 10 13 15 6 13 9 6 8 13 18 9 16 13 16 13 16 18 12 14 12 5 5 11 13
5 1 6 7 2 1 3 6 3 4 4 7 7 7 8 9 14 13 12 8 9 11 16 15 6 13 16 4 9 13 8 5 11 14 15 15 3 2 14 15 8 3 9 12 14
5 2 4 6 2 4 6 5 3 7 7 5 5 6 8 11 6 7 10 9 15 13 6 10 6 11 10 5 9 7 13 12 13 16 14 15 9 10 11 8 5 9 13 13 15
4 2 2 3 2 4 6 1 3 5 10 4 10 11 11 12 11 10 17 9 14 17 14 12 13 14 13 20 11 10 10 12 12 11 17 16 21 14 17 9 12 14 16 17 16
4 3 4 3 1 7 6 4 5 4 4 11 5 9 11 6 17 19 12 18 18 19 13 5 14 18 20 19 17 17 18 18 19 19 19 20 18 18 19 18 17 18 20 21 16
4 5 4 6 5 7 1 2 5 4 7 9 10 12 14 16 17 23 21 18 6 5 10 9 10 12 17 18 19 20 21 22 23 22 23 22 24 23 22 22 22 20 19 17 16
2 1 3 4 3 4 2 4 8 12 9 9 12 17 17 17 17 21 21 20 14 6 4 6 6 7 14 10 12 14 17 18 19 20 18 20 20 19 21 19 18 18 17 17 16
Wind_Direction
352 348 345 344 341 338 336 333 329 329 328 325 323 322 327 325 331 304 279 7 344 335 297 275 253 220 219 221 229 236 241 242 243 231 252 259 255 247 254 252 212 263 95 25 51
348 345 341 339 337 335 333 330 329 329 327 323 322 329 331 329 320 275 135 48 7 357 284 234 228 210 212 218 212 217 229 242 250 254 248 245 253 255 247 230 224 214 200 46 64
345 342 340 338 338 336 335 335 338 337 325 317 318 327 329 330 263 101 112 339 336 345 311 270 240 231 225 221 219 223 241 239 242 245 255 262 258 248 243 247 236 224 229 236 314
345 343 341 341 342 346 348 347 347 336 323 317 320 327 329 307 347 122 326 341 352 336 288 275 236 223 231 230 225 238 246 246 254 242 245 256 264 261 256 256 257 227 260 287 286
345 341 339 337 340 347 350 346 340 331 338 345 338 335 338 232 56 183 336 348 354 337 271 268 249 230 235 237 234 237 243 245 244 259 253 260 256 257 255 251 252 261 264 266 279
345 341 338 335 336 342 346 341 332 317 322 341 335 356 292 91 4 333 320 311 317 327 306 252 253 265 277 256 244 244 245 249 252 237 244 250 257 256 249 253 258 256 258 259 256
349 344 339 336 338 340 340 335 327 310 306 304 310 321 268 44 343 330 322 318 302 291 299 292 257 248 262 255 253 255 259 261 243 242 239 240 266 249 245 251 254 250 250 255 256
347 346 341 336 334 337 335 328 322 313 313 270 124 264 284 279 337 334 334 330 302 279 270 287 254 253 251 267 278 259 245 246 237 230 241 225 254 258 228 234 245 248 250 253 252
346 344 340 337 337 340 339 330 330 63 34 54 196 275 110 305 341 351 327 317 320 290 243 268 242 241 238 235 252 241 243 236 244 229 223 209 240 250 259 242 232 244 245 250 253
345 341 337 333 336 340 342 358 23 86 89 230 249 236 163 340 338 327 336 325 317 305 263 234 236 241 230 230 237 235 236 245 256 235 222 226 244 249 244 234 245 242 244 247 251
341 337 332 329 334 341 347 277 238 179 244 310 332 308 319 328 321 307 314 305 295 270 272 248 255 247 255 252 249 260 267 266 255 249 254 226 240 246 244 253 249 252 248 250 250
339 334 330 324 330 353 356 26 45 345 296 280 267 262 278 303 301 325 317 299 306 287 288 254 249 263 279 280 269 250 252 255 261 283 245 246 243 246 249 250 251 250 252 256 260
343 335 331 325 354 57 30 59 50 334 271 352 231 281 323 255 290 300 278 302 285 286 281 273 268 282 281 270 259 260 252 251 251 268 239 254 252 249 244 245 253 257 258 260 260
346 340 332 27 78 343 103 108 328 295 264 126 183 149 295 318 258 315 245 293 274 285 300 290 287 268 259 263 264 260 251 254 249 244 242 219 253 242 233 239 243 248 249 255 257
350 342 352 101 38 0 62 318 313 223 256 101 167 351 313 289 303 113 294 284 278 296 292 293 289 260 252 258 265 260 253 249 240 240 249 246 251 253 259 254 252 254 255 257 263
349 344 57 63 93 43 321 304 197 231 115 158 270 318 316 322 302 305 312 206 280 288 277 279 277 262 261 269 292 251 256 239 246 238 230 236 241 253 252 253 250 250 250 260 259
347 343 79 72 20 329 322 207 247 278 113 57 328 325 312 297 310 337 332 311 328 319 333 311 286 275 234 259 272 245 243 231 221 230 242 227 228 238 242 329 294 250 234 285 286
346 64 84 10 327 323 273 241 282 59 342 344 319 310 295 8 347 333 322 316 99 311 302 327 324 13 240 227 254 245 231 230 222 224 233 231 234 224 238 253 207 276 267 268 342
3 97 170 350 328 314 275 263 355 6 355 324 314 304 27 312 323 313 323 314 341 347 335 312 287 275 246 259 263 252 250 241 264 278 246 219 219 251 226 217 204 186 203 340 353
342 226 62 333 306 281 271 325 317 338 318 305 308 304 320 326 314 325 321 317 310 299 331 308 301 272 276 258 253 244 262 269 243 251 240 236 209 223 216 232 234 164 83 10 6
302 225 24 343 296 280 290 354 304 330 323 313 312 298 311 313 298 303 277 294 281 306 315 296 281 290 249 234 238 284 226 216 261 259 255 221 221 212 241 190 147 112 25 18 1
326 238 5 341 267 318 311 342 357 286 287 291 282 282 278 306 296 292 285 275 301 314 302 299 289 284 281 237 178 241 228 322 262 231 252 275 72 111 155 119 113 20 14 2 355
338 303 9 317 345 346 336 298 260 296 314 300 304 286 298 291 301 292 288 299 308 304 318 349 259 293 286 183 207 236 262 260 248 275 276 253 236 139 153 146 69 359 347 339 343
306 328 109 71 117 331 344 350 322 313 289 255 290 275 277 293 279 270 286 286 300 291 288 304 265 259 279 303 314 292 282 269 277 263 260 243 263 189 202 298 323 326 317 319 325
353 37 4 324 25 336 298 284 305 313 279 299 276 255 295 280 302 285 300 305 284 273 263 255 265 269 269 271 280 276 268 262 256 256 264 266 267 266 279 295 310 302 299 299 312
352 345 342 296 299 314 231 274 305 309 303 289 275 301 304 286 284 289 299 302 271 320 254 229 255 276 292 284 271 271 267 260 254 249 254 258 265 273 277 281 281 287 290 303 311
26 311 282 288 289 310 331 323 304 308 289 257 287 295 292 292 308 295 288 280 255 225 230 279 269 282 267 282 294 270 264 252 254 250 255 256 260 263 266 270 275 285 290 297 299